Truckee, CA

2:16 PM PST on February 10, 2016 (GMT -0800)
Truckee-Tahoe

Weather History for KTRK - January, 2014

Change the Weather History Date:

Wednesday, January 29, 2014

  Actual Average (KRNO) Record (KRNO)
Temperature  
Mean Temperature 41 °F 37 °F  
Max Temperature 50 °F 47 °F 65 °F (2014)
Min Temperature 32 °F 27 °F -7 °F (1949)
Degree Days  
Heating Degree Days 24 28  
Month to date heating degree days 856  
Since 1 July heating degree days 2880  
Cooling Degree Days 0 0  
Month to date cooling degree days 0  
Year to date cooling degree days 0  
Moisture  
Dew Point 36 °F    
Average Humidity 91    
Maximum Humidity 100    
Minimum Humidity 66    
Precipitation  
Precipitation 0.39 in 0.03 in 0.53 in (1911)
Month to date precipitation 0.97  
Year to date precipitation 0.97  
Snow  
Snow 0.00 in 0.10 in 3.80 in (1916)
Month to date snowfall 5.4  
Since 1 July snowfall 13.8  
Snow Depth -    
Sea Level Pressure  
Sea Level Pressure 30.10 in    
Wind  
Wind Speed 2 mph (SSW)    
Max Wind Speed 12 mph    
Max Gust Speed 17 mph    
Visibility 9 miles    
Events Rain , Snow    
T = Trace of Precipitation, MM = Missing Value Source: NWS Daily Summary

Daily Weather History Graph

Daily Weather History Graph

Search for Another Location

Airport or City:

Trip Planner

Search our weather history database for the weather conditions in past years. The results will help you decide how hot, cold, wet, or windy it might be!

Date:

Astronomy

Jan. 29, 2014 Rise Set
Actual Time 7:10 AM PST 5:17 PM PST
Civil Twilight 6:41 AM PST 5:46 PM PST
Nautical Twilight 6:09 AM PST 6:18 PM PST
Astronomical Twilight 5:37 AM PST 6:50 PM PST
Moon 5:51 AM PST (1/29) 4:23 PM PST (1/29)
Length of Visible Light 11h 04m
Length of Day
10h 07m
Waning Crescent, 2% of the Moon is Illuminated
Jan 29
Waning Crescent
Jan 30
New
Feb 6
First Quarter
Feb 14
Full
Feb 22
Last Quarter

Hourly Weather History & Observations

Time (PST) Temp. Windchill Dew Point Humidity Pressure Visibility Wind Dir Wind Speed Gust Speed Precip Events Conditions
12:15 AM 32.0 °F - 30.2 °F 93% 30.27 in 10.0 mi Calm Calm - N/A   Scattered Clouds
12:35 AM 33.8 °F 30.8 °F 32.0 °F 93% 30.27 in 10.0 mi ESE 3.5 mph - N/A   Mostly Cloudy
12:55 AM 33.8 °F 30.8 °F 32.0 °F 93% 30.27 in 10.0 mi WSW 3.5 mph - N/A   Overcast
1:15 AM 35.6 °F - 32.0 °F 87% 30.26 in 10.0 mi Calm Calm - N/A   Overcast
1:35 AM 33.8 °F - 32.0 °F 93% 30.26 in 10.0 mi Calm Calm - N/A   Overcast
1:55 AM 35.6 °F - 32.0 °F 87% 30.25 in 10.0 mi Calm Calm - N/A   Overcast
2:15 AM 35.6 °F - 33.8 °F 93% 30.23 in 10.0 mi Calm Calm - N/A   Mostly Cloudy
2:35 AM 33.8 °F - 32.0 °F 93% 30.23 in 10.0 mi Calm Calm - N/A   Scattered Clouds
2:55 AM 32.0 °F 28.7 °F 30.2 °F 93% 30.23 in 10.0 mi SE 3.5 mph - N/A   Clear
3:15 AM 33.8 °F - 32.0 °F 93% 30.23 in 10.0 mi Calm Calm - N/A   Scattered Clouds
3:35 AM 33.8 °F - 32.0 °F 93% 30.23 in 10.0 mi Calm Calm - N/A   Overcast
3:55 AM 33.8 °F 28.6 °F 32.0 °F 93% 30.23 in 10.0 mi South 5.8 mph - N/A   Overcast
4:15 AM 32.0 °F - 32.0 °F 100% 30.22 in 10.0 mi Calm Calm - N/A   Mostly Cloudy
4:35 AM 33.8 °F 28.6 °F 32.0 °F 93% 30.21 in 10.0 mi West 5.8 mph - N/A   Mostly Cloudy
4:55 AM 32.0 °F - 32.0 °F 100% 30.21 in 10.0 mi Calm Calm - N/A   Mostly Cloudy
5:15 AM 33.8 °F 30.8 °F 32.0 °F 93% 30.20 in 10.0 mi SE 3.5 mph - N/A   Overcast
5:35 AM 33.8 °F - 32.0 °F 93% 30.20 in 10.0 mi Calm Calm - N/A   Overcast
6:55 AM 39.2 °F - 37.4 °F 93% 30.19 in 8.0 mi Calm Calm - N/A   Mostly Cloudy
7:55 AM 39.2 °F - 37.4 °F 93% 30.19 in 10.0 mi Calm Calm - N/A   Overcast
9:55 AM 50.0 °F - 39.2 °F 66% 30.16 in 10.0 mi Calm Calm - N/A   Overcast
10:55 AM 50.0 °F - 39.2 °F 66% 30.14 in 10.0 mi SW 9.2 mph 16.1 mph N/A   Overcast
11:55 AM 48.2 °F - 44.6 °F 87% 30.13 in 7.0 mi SW 4.6 mph - N/A Rain Light Rain
12:55 PM 46.4 °F 42.4 °F 42.8 °F 87% 30.09 in 6.0 mi SSW 8.1 mph - N/A Rain Light Rain
1:50 PM 44.6 °F 40.2 °F 42.8 °F 93% 30.07 in 4.0 mi West 8.1 mph - N/A Rain Light Rain
2:55 PM 42.8 °F 37.0 °F 39.2 °F 87% 30.06 in 5.0 mi SW 10.4 mph 17.3 mph N/A Rain Light Rain
3:50 PM 42.8 °F 41.1 °F 39.2 °F 87% 30.05 in 5.0 mi South 3.5 mph - N/A Rain Light Rain
4:55 PM 41.0 °F - 37.4 °F 87% 30.00 in 10.0 mi Calm Calm - 0.06 in Rain Light Rain
5:15 PM 39.2 °F 37.0 °F 37.4 °F 93% 30.00 in 10.0 mi East 3.5 mph - 0.01 in Rain Light Rain
5:35 PM 41.0 °F - 37.4 °F 87% 30.00 in 10.0 mi Calm Calm - 0.03 in Rain Light Rain
5:55 PM 39.2 °F 35.9 °F 37.4 °F 93% 29.98 in 5.0 mi SSE 4.6 mph - 0.06 in Rain Light Rain
6:15 PM 39.2 °F 35.0 °F 37.4 °F 93% 29.98 in 10.0 mi ESE 5.8 mph - 0.01 in Rain Light Rain
6:35 PM 41.0 °F - 37.4 °F 87% 29.99 in 10.0 mi Calm Calm - 0.02 in Rain Light Rain
6:55 PM 41.0 °F - 37.4 °F 87% 29.97 in 10.0 mi Calm Calm - 0.04 in Rain Light Rain
7:15 PM 41.0 °F - 37.4 °F 87% 29.98 in 10.0 mi Calm Calm - 0.01 in Rain Light Rain
7:35 PM 41.0 °F - 37.4 °F 87% 29.98 in 7.0 mi Calm Calm - 0.03 in Rain Light Rain
7:55 PM 41.0 °F - 37.4 °F 87% 29.97 in 10.0 mi Calm Calm - 0.04 in Rain Rain
8:15 PM 39.2 °F - 37.4 °F 93% 29.98 in 10.0 mi Calm Calm - 0.01 in Rain Light Rain
8:35 PM 39.2 °F - 37.4 °F 93% 29.98 in 7.0 mi Calm Calm - 0.04 in Rain Light Rain
8:55 PM 37.4 °F - 37.4 °F 100% 29.98 in 7.0 mi Calm Calm - 0.07 in Rain Light Rain
9:15 PM 37.4 °F - 37.4 °F 100% 29.98 in 7.0 mi Calm Calm - 0.02 in Rain Light Rain
9:35 PM 37.4 °F - 37.4 °F 100% 29.97 in 7.0 mi Calm Calm - 0.04 in Rain Light Rain
9:55 PM 37.4 °F - 37.4 °F 100% 29.97 in 10.0 mi Calm Calm - 0.06 in Rain Light Rain
10:15 PM 37.4 °F 33.8 °F 37.4 °F 100% 29.97 in 10.0 mi NW 4.6 mph - 0.01 in Rain Light Rain
10:35 PM 37.4 °F 29.8 °F 35.6 °F 93% 29.97 in 10.0 mi West 11.5 mph - 0.02 in Rain Light Rain
10:55 PM 37.4 °F 30.8 °F 35.6 °F 93% 29.96 in 7.0 mi West 9.2 mph - 0.03 in Rain Light Rain
11:15 PM 35.6 °F 29.9 °F 33.8 °F 93% 29.97 in 10.0 mi WNW 6.9 mph - N/A Rain Light Rain
11:35 PM 33.8 °F 27.0 °F 32.0 °F 93% 29.97 in 10.0 mi North 8.1 mph 16.1 mph 0.02 in Rain Light Rain
11:55 PM 32.0 °F 24.2 °F 32.0 °F 100% 29.96 in 2.5 mi NNE 9.2 mph - 0.03 in Snow Light Snow